CZ-4C R/B, 48341

Orbit data source: Space-Track

CZ-4C R/B, 48341 is space debris in LEO originally from a launch on Fri, 30 Apr 2021 UTC launched from the Jiuquan Satellite Launch Center, China (JSC). Debris objects in space refer to the collection of defunct objects orbiting the Earth. Examples of debris include non-operational satellites, rocket bodies, and fragments generated from explosions, collisions, or faulty payload assembly.

Loading next visibility...
Identifier
48341, 2021-037B
Orbit
LEO
Country
Flag of CNCN / PRC
Related business
Manufacturer
SAST
Mission
Spacecraft
Bus & Motor
CZ-4 STAGE 3, Unknown motor
Mass
~1,000 kg wet, ~1,000 kg dry
Launch date (UTC)
2021-04-30 (5 years ago)
Launch vehicle
Unknown
Launch site
Jiuquan Satellite Launch Center, China (JSC)
Object type
Payload
Rocket body
Debris
Shape & HBR
Cyl, 2.5 m
Radar Cross Section
14.536 m², Large (>1 m²)

Expand to show TLE details & history
Last TLE update: 2 days ago

TLE from 2 days ago
0 CZ-4C R/B
1 48341U 21037B   26171.28225972 -.00000066  00000-0  31241-4 0  9995
2 48341  63.4465  23.2946 0234215   8.0427 352.4259 13.59769189255206
Epoch: 2026-06-20T06:46Z
TLE epoch observation values (Epoch: 2026-06-20T06:46:27.239Z)
Latitude
-0.00004°
Longitude
13.18197°
Altitude
866.223 km
Speed
7.505 km/s
True Right ascension
01h 33m 10s
True Declination
0° 00' 00"
Sunlit
Object was in daylight at epoch
Visualization orbit readout
Latitude
Unknown
Longitude
Unknown
Altitude
Unknown
Speed
Unknown
Apparent Right ascension
Unknown
Apparent Declination
Unknown
Sunlit
N/A
Visualization observer readout
Local Sidereal Time
21:27:31
Azimuth
Unknown
Elevation
Unknown
Doppler factor
Unknown
Orbital elements
Apogee altitude
1,208.98 km
Perigee altitude
861.71 km
Semi-major axis
7,413.482 km
Eccentricity
0.02342
Inclination
63.4465°
RAAN
23.2946°
Arg. of periapsis
8.0427°
True anomaly
352.06158°
Mean anomaly
352.4259°
Eccentric anomaly
352.24482°
Mean motion
3.40024 °/min
Orbital period
105.87 mins
BSTAR
0.000031241
Loading maneuver chart data...
Computing Atmospheric mass density...
Loading historical data...
Loading historical data...
Loading historical data...
Loading historical data...
Loading historical data...
Loading historical data...
Loading historical data...
Other satellites on launch #37 in the year 2021 (2021-04-30 UTC)

Documentation

Showing up to 5 results
|